Regional Weather Roundup
Issued by NWS Midland/Odessa, TX

Skip options and go directly to product.
Home | Oldest Version | Next Version | Current Version | All | Text Only | Save Text | Print | Product List | Glossary On

Skip product version selection by date and time.   
111
ASUS44 KMAF 271401
RWRMAF
MIDLAND AREA WEATHER ROUNDUP
NATIONAL WEATHER SERVICE MIDLAND TX
900 AM CDT WED JUL 27 2016

...IN SOUTHWEST TEXAS AND SOUTHEAST NEW MEXICO...

CITY           SKY/WX    TMP DP  RH WIND       PRES   REMARKS
ALPINE         CLOUDY    71  64  77 CALM      30.21S
ANDREWS        FAIR      76  67  73 CALM      30.10S
ARTESIA        SUNNY     77  64  65 CALM      30.12R
BIG SPRING     SUNNY     78  68  72 CALM      30.09S
CARLSBAD       SUNNY     76  66  71 S8        30.08R
DRYDEN           N/A     75  72  90 VRB7      30.03R
FORT STOCKTON  SUNNY     77  65  66 SE8       30.07R
GUAD PASS      CLOUDY    71  57  61 NE6       30.24R
HOBBS          SUNNY     73  64  73 VRB5      30.13R
MARFA          CLOUDY    74  61  63 N3        30.20R
MIDLAND AIRPK  SUNNY     78  69  74 CALM      30.08S
MIDLAND INTL   SUNNY     77  69  76 SE3       30.08R
ODESSA         SUNNY     76  68  76 SE3       30.09R
PECOS          CLOUDY    75  67  77 E7        30.06R
PRESIDIO       FAIR      82  63  51 E8        30.04R
SEMINOLE       SUNNY     76  64  65 CALM      30.11S
SNYDER           N/A     77  67  70 SW5       30.06R
WINK           SUNNY     76  68  76 SE6       30.05R
$$
...OTHER STATIONS IN TEXAS...

CITY           SKY/WX    TMP DP  RH WIND       PRES   REMARKS
ABILENE        SUNNY     82  69  64 S3        30.02R
AMARILLO       SUNNY     75  67  76 SE10      30.11S
AUSTIN         TSTM      72  71  97 W10       30.00R FOG
BROWNSVILLE    MOSUNNY   86  76  71 S15G22    29.94R
CORPUS CHRISTI CLOUDY    85  78  80 S14       29.94R
DALLAS FTW     PTSUNNY   84  73  69 S7        29.95S
DEL RIO        SUNNY     77  73  87 E6        29.97R
EL PASO        CLOUDY    75  66  73 E5        30.11S
HOUSTON INT    CLOUDY    80  76  87 CALM      29.98R
LUBBOCK        MOSUNNY   78  64  61 CALM      30.09R
SAN ANGELO     SUNNY     78  68  71 SW7       30.03S
SAN ANTONIO    CLOUDY    79  74  84 E5        29.99R
WACO           SUNNY     82  72  71 S8        29.98R
WICHITA FALLS  NOT AVBL
$$
...OTHER LOCATIONS IN NEW MEXICO...

CITY           SKY/WX    TMP DP  RH WIND       PRES   REMARKS
ALAMAGORDO     CLOUDY    68  66  94 N6        30.16R
ALBUQUERQUE    MOSUNNY   74  60  61 CALM      30.25R
CANNON AFB     SUNNY     75  65  69 W5        30.15R
CLOVIS         SUNNY     75  61  60 W5        30.15S
HOLLOMAN AFB   CLOUDY    69  66  92 N5        30.14R
ROSWELL        SUNNY     76  64  66 N3        30.11R
RUIDOSO          N/A     63  55  77 NW5       30.34R
SANTA FE       SUNNY     70  54  56 N8        30.31R
TRUTH OR CONSE SUNNY     74  60  61 E3        30.19R
TUCUMCARI      SUNNY     74  62  66 W6        30.12R
$$

USA.gov is the U.S. government's official web portal to all federal, state and local government web resources and services.